This is the latest recevied weather packets stored in our database for station/object KBNA. If no packets are shown the sender has not sent any weather packets the latest 1 day(s).
| Time | Temp. | Humidity | Pressure | Rain* | Wind** | Luminosity | Snow |
|---|---|---|---|---|---|---|---|
| 1778090006 | 12.78° C | 87% | 1013.9 hPa | - | - | - | - |
| 1778086412 | 12.78° C | 87% | 1013.9 hPa | - | - | - | - |
| 1778085808 | 12.78° C | 87% | 1013.9 hPa | - | - | - | - |
| 1778085210 | 12.78° C | 87% | 1013.9 hPa | - | - | - | - |
| 1778084609 | 12.78° C | 87% | 1013.9 hPa | - | - | - | - |
| 1778084009 | 12.78° C | 87% | 1013.9 hPa | - | - | - | - |
| 1778081608 | 11.67° C | 87% | 1013.5 hPa | - | - | - | - |
| 1778079207 | 12.78° C | 87% | 1012.2 hPa | - | - | - | - |
| 1778076206 | 12.78° C | 87% | 1012.2 hPa | - | - | - | - |
| 1778074403 | 11.67° C | 93% | 1011.5 hPa | - | - | - | - |
| 1778071408 | 12.78° C | 87% | 1011.2 hPa | - | - | - | - |
| 1778069606 | 12.78° C | 87% | 1011.2 hPa | - | - | - | - |
| 1778069006 | 12.78° C | 87% | 1011.2 hPa | - | - | - | - |
| 1778068407 | 12.78° C | 87% | 1011.2 hPa | - | - | - | - |
| 1778067806 | 12.78° C | 87% | 1011.2 hPa | - | - | - | - |
| 1778064806 | 13.89° C | 87% | 1009.8 hPa | - | - | - | - |
| 1778062407 | 13.89° C | 87% | 1009.8 hPa | - | - | - | - |
| 1778061808 | 13.89° C | 87% | 1009.8 hPa | - | - | - | - |
| 1778060008 | 15.56° C | 87% | 1009.1 hPa | - | - | - | - |
| 1778059406 | 15.56° C | 87% | 1009.1 hPa | - | - | - | - |
| 1778058807 | 18.89° C | 88% | 1009.1 hPa | - | - | - | - |
| 1778057609 | 18.89° C | 88% | 1008.1 hPa | - | - | - | - |
| 1778056407 | 21.67° C | 68% | 1006.8 hPa | - | - | - | - |
| 1778055204 | 21.67° C | 68% | 1006.8 hPa | - | - | - | - |
| 1778054605 | 21.67° C | 68% | 1006.8 hPa | - | - | - | - |
* Rain since midnight (hover to see other rain measurements)
** Current wind speed in m/s (hover to see current wind gust speed)